This is the latest recevied weather packets stored in our database for station/object XE1GMR. If no packets are shown the sender has not sent any weather packets the latest 10 day(s).
| Time | Temp. | Humidity | Pressure | Rain* | Wind** | Luminosity | Snow |
|---|---|---|---|---|---|---|---|
| 1777701473 | 21.67° C | 51% | 1120 hPa | 0 mm | - | 0 W/m² | - |
| 1777701170 | 21.67° C | 49% | 1119.9 hPa | 0 mm | - | 0 W/m² | - |
| 1777700869 | 21.67° C | 48% | 1119.9 hPa | 0 mm | - | 0 W/m² | - |
| 1777700567 | 21.11° C | 48% | 1120 hPa | 0 mm | - | 0 W/m² | - |
| 1777700264 | 21.11° C | 49% | 1119.9 hPa | 0 mm | - | 0 W/m² | - |
| 1777699961 | 21.67° C | 48% | 1119.8 hPa | 0 mm | - | 0 W/m² | - |
| 1777699659 | 21.67° C | 48% | 1119.9 hPa | 0 mm | - | 0 W/m² | - |
| 1777699357 | 21.67° C | 48% | 1119.9 hPa | 0 mm | - | 0 W/m² | - |
| 1777699055 | 22.22° C | 47% | 1120 hPa | 0 mm | - | 0 W/m² | - |
| 1777698753 | 22.78° C | 45% | 1119.7 hPa | 0 mm | - | 0 W/m² | - |
| 1777698449 | 22.22° C | 42% | 1120 hPa | 0 mm | - | 0 W/m² | - |
| 1777698145 | 22.22° C | 43% | 1119.8 hPa | 0 mm | - | 0 W/m² | - |
| 1777697842 | 22.22° C | 45% | 1119.5 hPa | 0 mm | - | 0 W/m² | - |
| 1777697539 | 22.78° C | 47% | 1119.8 hPa | 0 mm | - | 0 W/m² | - |
| 1777697236 | 22.78° C | 44% | 1119.7 hPa | 0 mm | - | 0 W/m² | - |
| 1777696932 | 22.78° C | 47% | 1119.7 hPa | 0 mm | - | 0 W/m² | - |
| 1777696630 | 22.78° C | 47% | 1119.4 hPa | 0 mm | - | 0 W/m² | - |
| 1777696327 | 22.78° C | 46% | 1119.4 hPa | 0 mm | - | 0 W/m² | - |
| 1777696026 | 22.78° C | 44% | 1119.5 hPa | 0 mm | - | 0 W/m² | - |
| 1777695724 | 23.33° C | 41% | 1119.5 hPa | 0 mm | - | 0 W/m² | - |
| 1777695421 | 23.33° C | 40% | 1119.4 hPa | 0 mm | - | 0 W/m² | - |
| 1777695118 | 23.33° C | 40% | 1119.3 hPa | 0 mm | - | 0 W/m² | - |
| 1777694815 | 23.33° C | 39% | 1119.4 hPa | 0 mm | - | 0 W/m² | - |
| 1777694513 | 23.33° C | 38% | 1119 hPa | 0 mm | - | 0 W/m² | - |
| 1777694209 | 23.33° C | 40% | 1119.1 hPa | 0 mm | - | 0 W/m² | - |
* Rain latest hour (hover to see other rain measurements)
** Current wind speed in m/s (hover to see current wind gust speed)